Temperature
12 12 12 12 12 12 12 12 12 12 12 12 11 11 11 11 11 12 12 12 12 12 12 12 12 12 12 12 12 12 12 12 12 11 11 11 11 11 11 11 11 11 11
12 12 12 12 12 12 12 12 11 11 11 11 11 11 11 11 11 11 11 11 11 11 11 11 11 11 11 11 11 11 11 11 11 11 11 11 10 10 10 10 10 10 10
11 11 11 11 11 11 11 11 11 11 11 11 11 11 11 11 11 11 11 11 11 11 11 11 11 11 11 11 11 11 11 11 11 10 10 10 10 10 10 10 10 10 10
11 11 11 11 11 11 11 11 11 11 11 11 11 11 10 10 10 10 11 11 11 11 10 10 11 11 11 10 10 10 10 10 10 10 10 10 10 9 9 9 9 9 9
11 11 11 11 11 11 11 11 11 10 10 10 10 10 10 10 10 10 10 10 10 10 10 10 10 10 10 10 10 10 10 10 10 10 10 9 9 9 9 9 9 9 9
10 10 10 10 10 10 10 10 10 10 10 10 10 10 10 10 10 10 10 10 10 10 10 10 10 10 10 10 10 10 10 10 9 9 9 9 9 9 9 9 9 9 8
10 10 10 10 10 10 10 10 10 10 10 10 10 9 9 9 9 9 9 9 10 10 10 9 9 9 9 9 9 9 9 9 9 9 9 8 8 8 8 8 8 8 8
9 9 9 10 10 10 10 10 10 10 10 9 9 9 9 8 9 9 9 9 9 9 9 9 9 9 9 9 9 9 9 9 9 9 8 8 8 8 8 8 8 8 8
8 9 9 9 9 9 9 9 9 9 9 9 9 9 9 9 8 8 8 8 9 9 9 9 9 9 9 9 9 9 9 9 8 8 8 8 8 7 7 7 7 8 8
8 8 8 9 9 9 9 9 9 9 9 9 9 9 9 9 8 8 8 8 8 8 8 8 8 8 8 8 8 8 8 8 8 8 8 7 7 7 7 7 7 7 7
7 8 8 8 8 9 9 9 9 9 9 9 9 9 9 9 9 8 8 8 8 8 8 8 8 8 8 8 8 8 8 8 8 8 7 7 7 7 7 7 7 7 7
7 7 7 7 8 8 8 8 8 9 8 8 8 8 8 8 8 8 8 7 7 7 7 7 7 7 7 7 7 7 7 7 7 7 7 7 7 7 7 7 7 7 7
6 6 6 7 7 7 8 8 8 8 8 8 8 8 8 8 8 8 8 7 7 7 7 7 7 7 7 7 7 7 7 7 7 7 7 7 7 7 7 7 6 6 6
5 6 6 6 7 7 7 7 7 7 7 8 8 8 8 8 8 8 8 8 7 6 6 6 7 7 6 7 7 7 7 7 7 6 6 6 6 6 6 6 6 6 6
5 5 5 6 6 6 7 7 7 7 7 7 7 7 7 8 8 8 8 8 7 6 6 6 6 7 6 6 6 6 6 6 6 6 6 6 6 6 6 6 6 5 5
4 5 5 5 6 6 6 6 6 7 6 7 7 7 7 7 7 7 7 7 7 7 6 6 6 6 6 6 6 6 6 6 6 6 6 6 6 6 5 5 5 5 5
4 4 4 5 5 5 5 6 6 6 6 6 6 6 7 7 7 7 7 7 7 7 6 6 6 6 6 6 6 6 6 6 5 5 5 5 5 5 5 5 5 4 4
3 4 4 4 4 5 5 5 5 6 6 6 6 6 6 6 6 6 6 6 6 6 6 6 6 6 6 6 5 5 5 5 5 5 5 5 4 4 4 4 4 4 4
3 3 3 4 4 4 5 5 5 5 5 5 5 5 6 6 6 6 6 6 6 6 6 6 6 6 5 5 5 5 5 5 5 4 4 4 4 4 4 4 4 4 3
2 3 3 3 3 4 4 4 4 4 5 5 5 5 5 5 5 5 5 5 5 5 5 5 5 5 5 5 5 4 4 4 4 4 4 4 4 4 4 3 3 3 3
2 2 2 2 3 3 4 4 4 4 4 4 4 5 5 5 5 5 5 5 5 5 5 5 4 4 4 4 4 4 4 4 3 3 3 3 3 3 3 3 3 3 3
1 1 2 2 2 3 3 3 3 4 4 4 4 4 4 4 5 5 5 5 5 5 4 4 4 4 4 4 4 3 3 3 3 3 3 3 3 3 3 3 3 2 2
0 1 1 1 2 2 3 3 3 3 3 3 3 3 3 4 4 4 4 4 4 4 4 4 4 4 4 4 4 3 3 3 3 3 3 2 2 2 2 2 2 2 2
-0 0 0 1 1 1 2 2 2 2 2 3 3 3 3 3 3 3 3 4 4 3 3 3 3 4 3 3 3 3 3 2 2 2 2 2 2 2 2 2 2 1 1
-1 -1 -0 0 0 1 1 1 2 2 2 2 2 2 2 2 3 3 3 3 3 3 3 3 3 3 3 3 3 2 2 1 1 1 1 1 1 1 1 1 1 1 1
-1 -1 -1 -1 -0 0 1 1 1 1 1 1 1 2 2 2 2 2 2 2 2 2 2 2 2 2 2 2 2 2 2 1 1 1 1 0 0 0 0 0 1 0 0
Wind_Speed
4 5 5 5 5 5 6 6 6 7 7 7 6 6 6 5 5 5 6 9 7 7 8 9 8 9 9 10 11 11 10 10 10 10 10 10 10 10 10 10 11 11 11
4 4 5 5 5 5 6 6 7 6 6 6 6 6 5 5 5 5 5 7 8 7 7 8 9 9 9 10 11 10 9 9 9 9 9 9 10 10 10 10 10 10 10
5 5 4 5 5 6 6 6 7 6 5 5 6 6 5 5 5 5 5 5 6 7 8 8 8 9 9 10 10 10 9 9 9 9 9 10 9 10 11 10 10 10 10
5 5 4 4 5 6 6 5 6 6 5 5 5 4 4 4 5 5 5 5 5 5 7 8 9 9 9 9 9 9 9 9 9 9 9 9 9 9 9 9 9 8 8
5 5 4 4 6 5 5 5 5 6 6 6 5 4 3 4 4 4 4 5 5 5 5 8 9 9 8 8 7 8 8 8 8 8 8 9 9 8 8 8 8 8 7
4 4 4 5 5 5 5 6 6 6 6 6 6 4 3 3 3 3 3 4 4 4 5 5 6 7 7 7 6 6 7 7 7 7 7 7 7 7 7 6 6 7 7
4 4 3 5 5 5 5 7 6 7 7 7 5 4 3 3 3 2 2 3 4 4 4 4 4 4 5 5 6 5 6 6 6 6 5 5 5 6 5 5 5 5 6
3 4 4 4 5 5 6 6 7 5 5 6 5 5 3 3 2 1 1 2 3 3 3 3 4 3 3 3 4 5 5 5 5 5 4 4 4 5 5 5 5 4 5
2 4 5 5 5 6 6 7 8 7 6 6 6 5 4 4 3 2 2 2 2 3 2 3 3 3 2 3 3 4 4 4 4 4 4 4 4 4 4 4 4 3 4
3 4 5 6 6 5 6 7 7 7 8 7 5 3 3 3 4 3 3 3 2 3 3 2 2 2 2 3 3 4 5 5 4 4 4 4 4 3 3 3 3 3 2
3 3 4 5 5 5 6 7 7 7 7 7 6 5 4 3 4 3 4 4 3 2 2 2 2 2 2 3 3 4 5 5 4 4 4 4 3 2 2 1 2 2 2
3 4 4 4 5 5 6 7 7 8 7 7 6 6 6 5 6 4 4 6 5 3 2 2 2 2 2 3 3 4 5 5 4 3 3 3 2 2 1 0 1 2 2
3 4 4 5 5 5 5 6 6 7 7 7 7 6 6 5 5 4 4 5 4 2 2 3 3 3 3 3 3 5 5 5 4 4 3 3 2 2 1 1 1 2 2
4 4 5 6 6 5 5 5 6 6 6 6 7 6 5 4 4 4 4 5 4 3 4 4 3 3 3 3 3 4 5 5 5 5 4 3 3 2 2 2 2 2 2
4 5 5 6 6 6 6 6 5 6 6 6 6 7 6 4 4 4 4 5 5 5 5 5 4 4 4 4 4 4 5 5 6 5 5 4 3 3 3 3 3 3 3
4 4 5 5 5 6 6 6 5 6 6 6 5 6 6 5 5 4 4 4 4 4 4 4 3 3 4 4 4 4 5 6 7 7 6 5 5 4 5 4 4 4 3
4 5 5 5 5 5 6 7 6 6 7 6 6 6 7 7 5 5 5 5 4 4 4 3 3 3 4 4 4 4 5 5 6 7 7 7 6 6 6 5 5 5 5
4 4 5 5 6 6 6 7 7 7 7 7 6 7 7 7 7 6 6 6 5 4 4 4 3 3 4 5 4 4 4 5 5 7 8 7 7 7 7 6 6 6 5
5 4 5 6 6 7 7 7 8 8 8 8 7 8 8 8 8 7 7 6 5 4 4 4 3 2 3 3 3 3 4 4 4 5 6 7 8 8 8 8 7 7 7
5 6 6 6 6 7 7 7 8 8 8 7 7 8 8 8 9 9 7 8 6 6 5 5 4 3 3 3 4 3 3 3 3 4 5 5 6 8 8 8 8 8 8
6 6 6 6 6 6 7 8 8 8 8 8 8 8 8 8 8 8 7 8 8 6 6 5 5 4 4 4 5 4 4 3 3 3 3 4 5 5 6 7 8 8 8
6 6 6 6 7 6 8 9 8 8 8 8 8 7 7 8 8 9 9 9 9 9 8 7 6 6 6 6 5 5 4 3 3 3 4 4 4 4 5 5 7 8 8
6 7 7 7 7 8 9 11 10 8 8 8 8 7 6 6 8 8 9 9 9 9 9 8 9 8 7 7 7 7 6 6 4 3 3 4 4 5 5 6 8 8 8
6 7 7 7 7 8 9 10 10 9 8 9 9 9 8 8 7 7 8 8 8 8 8 7 7 7 6 7 8 7 6 5 3 3 4 4 4 4 4 5 8 9 9
6 6 7 7 8 8 9 10 9 7 7 7 7 8 8 8 8 8 8 8 7 6 6 6 6 6 7 8 8 5 5 4 4 4 4 3 3 3 3 4 5 7 8
6 6 6 7 8 8 9 10 10 6 6 6 6 7 9 9 9 9 9 9 9 7 6 5 4 5 6 8 9 8 7 6 4 3 4 4 3 2 3 3 3 5 6
Wind_Direction
162 162 158 161 162 160 161 156 153 148 144 139 133 129 123 117 113 110 100 82 87 101 108 108 109 115 119 113 108 102 97 92 89 84 80 79 80 79 76 73 68 64 61
166 165 164 163 162 161 161 161 156 150 144 139 135 135 133 127 117 113 113 102 84 92 103 108 105 104 109 111 108 103 101 96 93 87 83 84 82 79 78 75 72 67 63
173 169 169 169 162 162 161 158 154 150 145 141 142 138 136 132 123 116 110 112 109 93 92 102 109 107 105 107 107 103 99 97 95 90 87 86 85 82 76 72 71 67 64
180 171 172 172 169 167 164 161 161 157 151 151 146 141 135 128 120 115 111 109 110 110 97 90 95 100 102 104 110 109 103 97 93 90 88 87 84 83 79 72 66 66 64
183 178 176 172 172 170 168 168 168 162 155 147 138 130 127 125 119 120 115 108 102 104 109 100 94 90 93 96 105 109 106 101 95 91 90 88 83 83 79 71 65 63 64
185 180 176 172 172 174 174 175 165 162 156 143 129 117 112 118 120 120 120 115 109 110 113 112 109 99 94 95 98 108 111 107 105 99 94 93 89 83 80 72 66 62 60
191 183 178 176 178 180 179 178 167 161 155 148 134 121 97 92 106 113 117 123 119 116 116 114 108 113 115 105 99 109 115 113 114 110 103 100 96 90 83 72 67 63 59
209 194 187 186 184 183 180 180 172 164 165 171 165 155 157 160 129 102 129 137 139 133 127 121 118 116 129 137 118 111 123 125 124 120 118 113 104 97 85 74 70 65 56
235 212 200 194 193 189 189 188 187 183 176 182 185 181 179 188 160 156 159 166 166 159 150 140 128 136 147 150 153 140 136 139 138 133 128 122 110 101 92 74 68 60 53
230 224 207 200 198 197 196 195 194 195 185 185 185 200 200 158 173 167 175 182 184 186 174 157 159 148 160 162 155 148 154 154 155 150 144 136 123 106 90 72 63 48 42
228 233 215 208 206 204 201 202 198 198 198 193 189 185 180 174 184 183 185 184 188 200 191 184 186 172 167 165 159 158 161 167 170 165 158 147 136 122 105 82 49 22 14
232 231 226 216 214 209 206 208 201 201 201 199 196 196 192 190 190 190 189 185 189 192 196 199 200 189 183 174 163 158 163 168 172 176 171 159 154 150 137 95 14 349 343
245 234 229 223 219 216 212 210 201 201 201 198 201 205 205 203 187 185 175 178 187 189 200 209 209 202 191 186 174 172 173 178 185 183 178 175 176 183 205 235 296 323 315
258 253 235 228 222 217 211 207 203 200 199 198 203 204 203 198 185 182 177 172 178 194 206 211 206 204 198 195 186 186 186 190 191 190 191 194 202 206 217 234 258 284 300
276 257 241 231 223 216 209 205 206 200 201 201 201 202 201 197 190 184 181 183 185 198 209 204 199 197 201 202 196 201 205 194 194 196 197 201 208 213 222 233 246 258 267
269 262 243 235 225 215 208 205 206 202 202 201 199 200 199 196 189 184 186 192 202 204 205 197 196 186 190 201 204 206 209 201 202 204 203 205 212 221 227 235 236 238 251
264 257 250 235 226 218 211 208 205 199 202 201 199 202 204 194 190 187 185 190 196 198 201 197 193 195 199 200 202 206 208 209 208 205 206 213 218 221 223 229 234 239 251
263 255 250 237 228 220 211 209 207 203 202 201 199 202 207 198 191 189 188 192 194 196 199 198 202 200 212 209 208 208 210 213 216 209 213 219 222 223 228 233 237 240 245
263 254 247 240 231 220 215 212 208 206 206 204 201 203 206 200 196 194 193 194 192 191 197 196 197 204 209 207 210 215 217 216 215 216 219 223 223 225 229 233 236 238 242
260 248 245 245 236 223 216 215 212 208 208 207 207 208 207 205 204 198 197 195 189 188 187 187 187 194 203 205 206 212 220 226 220 219 225 227 226 228 229 232 234 237 243
262 252 244 244 241 228 219 216 214 211 208 208 208 209 209 208 208 201 198 195 190 192 191 192 192 197 202 198 207 212 224 229 233 217 224 222 222 227 228 228 232 239 244
263 256 245 241 240 234 223 219 216 210 209 209 210 210 208 205 203 201 197 195 195 196 197 200 205 206 209 209 207 209 212 222 235 214 228 237 225 231 232 232 233 237 242
257 252 244 241 243 239 221 217 216 211 211 212 211 208 208 209 204 206 198 195 202 205 205 207 210 212 207 205 202 208 214 221 234 219 227 239 232 239 239 240 235 237 242
257 249 243 240 243 242 224 216 216 214 212 214 213 211 209 208 207 203 200 201 207 210 212 215 218 215 210 204 204 209 215 220 242 224 220 236 238 247 247 245 236 237 244
261 253 248 242 242 242 226 215 212 213 213 215 215 214 212 211 202 197 197 199 204 209 207 207 213 208 201 197 192 187 191 203 232 230 219 228 238 255 255 247 238 238 245
262 256 251 245 241 242 228 217 211 210 209 212 212 213 211 209 198 196 202 200 203 207 198 196 198 192 193 192 191 200 201 208 222 229 210 211 228 233 245 240 240 245 247
Height
1540 1542 1544 1546 1547 1549 1550 1552 1553 1555 1557 1558 1559 1561 1562 1563 1564 1565 1566 1566 1567 1568 1568 1569 1569 1569 1569 1569 1569 1569 1569 1569 1569 1569 1568 1568 1568 1567 1567 1566 1566 1565 1564
1538 1540 1542 1544 1545 1547 1549 1550 1552 1554 1555 1557 1559 1560 1562 1563 1564 1565 1566 1566 1567 1568 1568 1568 1569 1569 1569 1569 1569 1569 1569 1569 1569 1569 1569 1569 1568 1568 1567 1567 1566 1565 1565
1536 1538 1540 1542 1543 1545 1547 1549 1551 1553 1554 1556 1558 1559 1561 1562 1563 1564 1565 1566 1567 1567 1568 1568 1568 1568 1569 1569 1569 1569 1569 1569 1569 1569 1569 1569 1569 1568 1567 1567 1566 1566 1565
1534 1536 1538 1540 1541 1543 1545 1547 1549 1551 1553 1555 1557 1558 1560 1561 1562 1563 1564 1565 1566 1567 1567 1567 1568 1568 1569 1569 1570 1569 1569 1570 1569 1569 1569 1569 1568 1568 1567 1567 1566 1566 1565
1531 1533 1535 1537 1539 1541 1543 1545 1547 1549 1551 1553 1555 1557 1559 1560 1561 1562 1563 1564 1565 1566 1566 1567 1567 1568 1568 1569 1569 1569 1569 1569 1569 1569 1569 1568 1568 1568 1567 1567 1566 1565 1565
1528 1531 1533 1535 1537 1539 1541 1543 1545 1547 1549 1551 1553 1555 1557 1559 1560 1561 1562 1563 1564 1565 1565 1566 1566 1567 1568 1568 1568 1568 1568 1569 1569 1568 1568 1568 1568 1567 1567 1566 1565 1565 1564
1526 1528 1530 1532 1534 1536 1538 1540 1542 1544 1546 1549 1551 1554 1556 1557 1559 1560 1561 1562 1563 1563 1564 1565 1565 1566 1566 1567 1567 1568 1568 1568 1568 1568 1567 1567 1567 1566 1566 1565 1565 1564 1563
1523 1525 1527 1529 1531 1533 1535 1538 1539 1541 1543 1546 1549 1552 1554 1557 1557 1558 1559 1560 1561 1562 1562 1563 1564 1564 1565 1566 1566 1566 1566 1567 1567 1567 1567 1566 1566 1565 1565 1564 1564 1563 1563
1519 1522 1524 1526 1528 1530 1532 1534 1537 1538 1540 1543 1546 1549 1551 1552 1554 1556 1556 1557 1559 1560 1560 1561 1562 1563 1563 1564 1564 1565 1565 1565 1565 1565 1565 1565 1565 1564 1564 1563 1563 1562 1562
1516 1518 1520 1522 1524 1526 1529 1531 1533 1536 1538 1540 1542 1544 1547 1548 1551 1552 1554 1555 1556 1557 1558 1559 1560 1560 1561 1562 1562 1562 1563 1564 1564 1564 1564 1564 1564 1563 1563 1562 1562 1561 1560
1513 1514 1516 1518 1520 1522 1525 1527 1529 1532 1534 1536 1538 1541 1543 1545 1547 1548 1550 1552 1553 1554 1555 1556 1557 1558 1559 1559 1560 1560 1561 1562 1562 1562 1562 1562 1562 1562 1561 1561 1560 1559 1559
1509 1511 1512 1514 1517 1518 1520 1523 1525 1528 1530 1532 1535 1537 1539 1541 1543 1545 1546 1548 1550 1551 1552 1553 1555 1555 1556 1557 1558 1558 1559 1559 1560 1560 1560 1560 1560 1560 1559 1559 1558 1557 1557
1505 1506 1508 1510 1512 1514 1516 1519 1521 1523 1526 1528 1531 1533 1536 1538 1540 1541 1543 1544 1546 1548 1549 1551 1552 1552 1553 1554 1555 1556 1556 1557 1557 1558 1558 1558 1558 1557 1557 1556 1556 1555 1554
1501 1503 1505 1506 1508 1510 1512 1514 1517 1519 1522 1524 1526 1529 1532 1534 1536 1538 1539 1541 1543 1545 1546 1547 1548 1549 1550 1551 1552 1553 1554 1554 1555 1555 1555 1555 1555 1555 1554 1554 1553 1552 1552
1498 1499 1501 1503 1504 1506 1508 1510 1512 1514 1517 1520 1522 1525 1527 1529 1532 1534 1536 1538 1540 1541 1542 1543 1544 1545 1547 1548 1549 1550 1551 1551 1552 1552 1552 1552 1552 1552 1551 1551 1550 1550 1549
1494 1495 1497 1498 1500 1502 1504 1506 1508 1510 1513 1515 1518 1520 1523 1525 1527 1529 1531 1533 1535 1537 1538 1539 1540 1542 1543 1544 1545 1546 1547 1548 1548 1548 1549 1549 1549 1549 1548 1548 1547 1546 1546
1490 1492 1493 1494 1496 1497 1499 1501 1503 1506 1508 1511 1513 1515 1518 1520 1522 1525 1527 1529 1531 1533 1534 1535 1536 1538 1540 1541 1542 1542 1543 1544 1544 1545 1545 1545 1545 1545 1545 1544 1544 1543 1542
1486 1487 1489 1490 1492 1493 1495 1497 1498 1501 1504 1506 1508 1510 1513 1515 1517 1520 1522 1524 1526 1528 1530 1531 1532 1534 1535 1537 1538 1539 1539 1539 1540 1541 1541 1541 1542 1541 1541 1541 1540 1540 1539
1482 1483 1484 1486 1487 1489 1490 1492 1494 1496 1499 1501 1503 1505 1508 1510 1512 1515 1517 1519 1521 1524 1526 1527 1528 1529 1531 1532 1534 1535 1535 1536 1536 1537 1537 1538 1538 1538 1537 1537 1536 1536 1535
1478 1479 1480 1481 1483 1484 1485 1487 1490 1492 1494 1496 1499 1501 1503 1505 1507 1510 1512 1515 1517 1519 1521 1522 1523 1525 1526 1528 1529 1530 1531 1532 1532 1533 1533 1534 1533 1533 1533 1533 1532 1532 1531
1473 1474 1475 1476 1478 1479 1481 1483 1485 1487 1489 1491 1493 1496 1498 1500 1502 1505 1507 1510 1512 1514 1516 1517 1519 1520 1521 1523 1524 1525 1527 1527 1528 1528 1529 1529 1529 1529 1528 1528 1528 1527 1526
1468 1469 1470 1471 1472 1474 1476 1478 1480 1482 1484 1486 1488 1490 1493 1495 1497 1500 1503 1505 1507 1509 1511 1512 1513 1515 1516 1518 1520 1521 1522 1522 1523 1524 1524 1524 1524 1524 1524 1524 1523 1523 1522
1463 1464 1465 1466 1467 1468 1470 1472 1474 1477 1479 1481 1483 1485 1487 1489 1492 1494 1497 1500 1502 1504 1506 1508 1509 1510 1511 1513 1515 1516 1517 1517 1518 1519 1520 1519 1520 1519 1519 1519 1519 1518 1517
1458 1458 1460 1461 1461 1463 1465 1467 1469 1471 1473 1475 1477 1480 1482 1484 1486 1489 1492 1494 1496 1498 1500 1502 1504 1506 1508 1509 1510 1511 1512 1513 1513 1514 1515 1515 1514 1514 1514 1514 1514 1513 1512
1453 1453 1454 1455 1456 1458 1460 1462 1464 1466 1467 1469 1472 1474 1476 1478 1481 1484 1486 1488 1490 1492 1495 1497 1499 1501 1502 1504 1505 1506 1507 1508 1508 1509 1510 1510 1509 1509 1509 1509 1508 1508 1507
1448 1448 1449 1451 1452 1453 1454 1456 1459 1460 1462 1464 1466 1468 1470 1473 1475 1478 1480 1482 1484 1486 1489 1491 1493 1495 1497 1498 1499 1501 1502 1503 1503 1503 1504 1505 1505 1505 1504 1503 1503 1503 1502